DLH35X EDDM-EDDF

Flight info

Callsign DLH35X
Flight time N/A
Altitude 24000
Route GIVMI1N/26R GIVMI Y101 ERNAS T161 DEBHI DEBHI1C
Aircraft A346/H-SDE2E3FGHIJ3J4J5M1RWXY/LB1D1

Departure

Time N/A
Airport Munich Airport (EDDM)

Arrival

Time 2026-04-14 10:52
Airport Frankfurt Main Airport (EDDF)
Time Latitude Longitude Altitude Speed Heading
2026-04-14 10:41 49.92103 8.64942 9539 ft 290 kts 272°
2026-04-14 10:41 49.92211 8.61822 9189 ft 287 kts 273°
2026-04-14 10:42 49.92316 8.58736 8803 ft 285 kts 273°
2026-04-14 10:42 49.92420 8.55666 8416 ft 284 kts 274°
2026-04-14 10:42 49.92523 8.52630 8204 ft 280 kts 273°
2026-04-14 10:42 49.92471 8.49614 7967 ft 278 kts 265°
2026-04-14 10:43 49.92132 8.46635 7493 ft 282 kts 257°
2026-04-14 10:43 49.91526 8.43732 7088 ft 283 kts 251°
2026-04-14 10:43 49.90835 8.40875 6672 ft 282 kts 251°
2026-04-14 10:43 49.90146 8.38074 6328 ft 281 kts 251°
2026-04-14 10:44 49.89454 8.35246 5963 ft 280 kts 251°
2026-04-14 10:44 49.88765 8.32417 5566 ft 280 kts 251°
2026-04-14 10:44 49.88078 8.29588 5197 ft 279 kts 251°
2026-04-14 10:44 49.87392 8.26774 4839 ft 278 kts 251°
2026-04-14 10:45 49.86711 8.23969 4486 ft 276 kts 252°
2026-04-14 10:45 49.86356 8.21125 4289 ft 264 kts 276°
2026-04-14 10:45 49.86877 8.18511 4093 ft 249 kts 306°
2026-04-14 10:45 49.88001 8.16639 3994 ft 234 kts 326°
2026-04-14 10:46 49.89399 8.15534 3993 ft 221 kts 340°
2026-04-14 10:46 49.90865 8.14920 3974 ft 218 kts
2026-04-14 10:46 49.92299 8.15565 3990 ft 218 kts 33°
2026-04-14 10:46 49.93459 8.17101 4000 ft 221 kts 47°
2026-04-14 10:47 49.94350 8.19046 3998 ft 222 kts 59°
2026-04-14 10:47 49.95013 8.21186 4008 ft 214 kts 63°
2026-04-14 10:47 49.95573 8.23226 4020 ft 196 kts 65°
2026-04-14 10:47 49.96056 8.25126 3990 ft 183 kts 66°
2026-04-14 10:48 49.96505 8.26968 3949 ft 182 kts 66°
2026-04-14 10:48 49.96945 8.28814 3722 ft 181 kts 66°
2026-04-14 10:48 49.97369 8.30616 3471 ft 178 kts 66°
2026-04-14 10:48 49.97793 8.32427 3230 ft 179 kts 66°
2026-04-14 10:49 49.98221 8.34249 2974 ft 180 kts 67°
2026-04-14 10:49 49.98655 8.36080 2692 ft 181 kts 67°
2026-04-14 10:49 49.99093 8.37920 2415 ft 181 kts 67°
2026-04-14 10:49 49.99535 8.39750 2187 ft 180 kts 67°
2026-04-14 10:50 49.99954 8.41567 2000 ft 176 kts 68°
2026-04-14 10:50 50.00338 8.43310 1750 ft 166 kts 69°
2026-04-14 10:50 50.00701 8.44962 1479 ft 156 kts 68°
2026-04-14 10:50 50.01076 8.46497 1284 ft 152 kts 65°
2026-04-14 10:51 50.01465 8.48025 1083 ft 152 kts 66°
2026-04-14 10:51 50.01839 8.49565 890 ft 152 kts 68°
2026-04-14 10:51 50.02205 8.51104 693 ft 150 kts 67°
2026-04-14 10:51 50.02565 8.52618 476 ft 148 kts 68°
2026-04-14 10:52 50.02917 8.54105 355 ft 140 kts 67°
2026-04-14 10:52 50.03192 8.55247 357 ft 81 kts 70°
2026-04-14 10:52 50.03339 8.55860 359 ft 51 kts 69°
2026-04-14 10:52 50.03469 8.56260 365 ft 38 kts 50°
2026-04-14 10:53 50.03663 8.56533 365 ft 32 kts 40°
2026-04-14 10:53 50.03767 8.56638 366 ft 16 kts 18°
2026-04-14 10:53 50.03879 8.56678 368 ft 14 kts 11°
2026-04-14 10:53 50.03980 8.56710 368 ft 16 kts 11°
2026-04-14 10:54 50.04099 8.56750 372 ft 19 kts 12°
2026-04-14 10:54 50.04197 8.56783 372 ft 11 kts 12°
2026-04-14 10:54 50.04282 8.56809 369 ft 13 kts
2026-04-14 10:54 50.04383 8.56838 372 ft 14 kts 11°
2026-04-14 10:55 50.04435 8.56827 371 ft 8 kts 297°
2026-04-14 10:55 50.04424 8.56713 370 ft 13 kts 250°
2026-04-14 10:55 50.04394 8.56584 370 ft 17 kts 250°
2026-04-14 10:55 50.04349 8.56394 366 ft 20 kts 249°
2026-04-14 10:56 50.04300 8.56194 367 ft 19 kts 249°
2026-04-14 10:56 50.04265 8.56038 366 ft 12 kts 260°
2026-04-14 10:56 50.04318 8.55945 365 ft 14 kts 337°
2026-04-14 10:56 50.04423 8.55913 368 ft 17 kts
2026-04-14 10:57 50.04532 8.55965 368 ft 13 kts 30°
2026-04-14 10:57 50.04585 8.56094 371 ft 16 kts 67°
2026-04-14 10:57 50.04623 8.56257 365 ft 12 kts 70°
2026-04-14 10:57 50.04636 8.56310 367 ft 4 kts 70°
2026-04-14 10:58 50.04647 8.56356 369 ft 5 kts 70°
2026-04-14 10:58 50.04661 8.56417 369 ft 9 kts 70°
2026-04-14 10:58 50.04690 8.56523 371 ft 11 kts 60°
2026-04-14 10:58 50.04728 8.56604 368 ft 6 kts 51°
2026-04-14 10:59 50.04754 8.56613 369 ft 4 kts 354°
2026-04-14 10:59 50.04782 8.56599 370 ft 4 kts 340°
2026-04-14 10:59 50.04799 8.56589 366 ft 1 kts 340°